SBI15 UNKL-UNNT

Flight info

Callsign SBI15
Flight time 0h 59m
Altitude 34000
Route APRUS2F APRUS B926 NATIR NATIR1K
Aircraft B738/M-SDE2E3FGHIRWXY/LB1

Departure

Time 2026-05-01 09:02
Airport Krasnoyarsk International Airport (UNKL)

Arrival

Time 2026-05-01 10:02
Airport Novosibirsk Tolmachevo Airport (UNNT)
Time Latitude Longitude Altitude Speed Heading
2026-05-01 08:28 56.17951 92.48538 952 ft 0 kts 22°
2026-05-01 08:29 56.18133 92.47810 952 ft 0 kts 24°
2026-05-01 08:49 56.18125 92.47804 952 ft 2 kts 24°
2026-05-01 08:49 56.18111 92.47792 952 ft 2 kts 24°
2026-05-01 08:50 56.18097 92.47781 952 ft 2 kts 24°
2026-05-01 08:50 56.18086 92.47763 952 ft 2 kts 64°
2026-05-01 08:50 56.18084 92.47723 952 ft 1 kts 112°
2026-05-01 08:51 56.18087 92.47714 952 ft 0 kts 112°
2026-05-01 08:53 56.18086 92.47717 952 ft 1 kts 112°
2026-05-01 08:53 56.18076 92.47765 952 ft 5 kts 110°
2026-05-01 08:53 56.18058 92.47843 952 ft 9 kts 114°
2026-05-01 08:54 56.18020 92.47965 952 ft 13 kts 144°
2026-05-01 08:54 56.17917 92.47930 952 ft 18 kts 201°
2026-05-01 08:54 56.17833 92.48007 952 ft 16 kts 114°
2026-05-01 08:54 56.17781 92.48229 952 ft 21 kts 114°
2026-05-01 08:55 56.17717 92.48493 952 ft 25 kts 112°
2026-05-01 08:55 56.17645 92.48794 952 ft 24 kts 112°
2026-05-01 08:55 56.17576 92.49083 952 ft 24 kts 112°
2026-05-01 08:55 56.17508 92.49371 952 ft 26 kts 112°
2026-05-01 08:56 56.17432 92.49687 952 ft 25 kts 112°
2026-05-01 08:56 56.17361 92.49985 952 ft 28 kts 112°
2026-05-01 08:56 56.17287 92.50294 952 ft 26 kts 112°
2026-05-01 08:56 56.17221 92.50571 952 ft 26 kts 112°
2026-05-01 08:57 56.17148 92.50879 952 ft 23 kts 113°
2026-05-01 08:57 56.17110 92.51040 952 ft 14 kts 111°
2026-05-01 08:57 56.17068 92.51217 952 ft 15 kts 113°
2026-05-01 08:57 56.17028 92.51385 952 ft 13 kts 113°
2026-05-01 08:58 56.16991 92.51541 952 ft 15 kts 115°
2026-05-01 08:58 56.16941 92.51744 952 ft 20 kts 113°
2026-05-01 08:58 56.16900 92.51912 952 ft 6 kts 123°
2026-05-01 08:58 56.16871 92.51970 952 ft 6 kts 137°
2026-05-01 08:59 56.16826 92.52025 952 ft 9 kts 153°
2026-05-01 08:59 56.16771 92.52058 952 ft 0 kts 167°
2026-05-01 09:00 56.16765 92.52061 952 ft 1 kts 166°
2026-05-01 09:00 56.16745 92.52065 952 ft 5 kts 178°
2026-05-01 09:00 56.16691 92.52063 952 ft 10 kts 191°
2026-05-01 09:00 56.16666 92.51945 952 ft 12 kts 293°
2026-05-01 09:01 56.16673 92.51916 952 ft 0 kts 292°
2026-05-01 09:01 56.16674 92.51915 952 ft 0 kts 292°
2026-05-01 09:01 56.16678 92.51894 952 ft 1 kts 290°
2026-05-01 09:01 56.16756 92.51572 952 ft 67 kts 293°
2026-05-01 09:02 56.17040 92.50389 953 ft 139 kts 291°
2026-05-01 09:02 56.17476 92.48517 1172 ft 176 kts 291°
2026-05-01 09:02 56.17950 92.46603 2192 ft 165 kts 294°
2026-05-01 09:02 56.18415 92.44715 2843 ft 176 kts 291°
2026-05-01 09:03 56.18885 92.42615 3442 ft 189 kts 291°
2026-05-01 09:03 56.19396 92.40373 4006 ft 204 kts 292°
2026-05-01 09:03 56.19934 92.37940 4625 ft 217 kts 284°
2026-05-01 09:03 56.19908 92.35182 5164 ft 236 kts 253°
2026-05-01 09:04 56.19274 92.32364 5863 ft 251 kts 246°
2026-05-01 09:04 56.18581 92.29434 6557 ft 265 kts 250°
2026-05-01 09:04 56.17948 92.26311 7401 ft 272 kts 252°
2026-05-01 09:04 56.17350 92.23092 8340 ft 275 kts 253°
2026-05-01 09:05 56.16761 92.19855 9294 ft 278 kts 253°
2026-05-01 09:05 56.16156 92.16550 10211 ft 281 kts 253°
2026-05-01 09:05 56.15538 92.13205 10886 ft 293 kts 253°
2026-05-01 09:05 56.14888 92.09692 11524 ft 305 kts 253°
2026-05-01 09:06 56.14195 92.05972 12026 ft 322 kts 253°
2026-05-01 09:06 56.13477 92.02134 12546 ft 338 kts 253°
2026-05-01 09:06 56.12723 91.98117 13353 ft 343 kts 253°
2026-05-01 09:06 56.11959 91.94058 14258 ft 346 kts 254°
2026-05-01 09:07 56.11191 91.89987 15050 ft 350 kts 254°
2026-05-01 09:07 56.10413 91.85857 15847 ft 354 kts 255°
2026-05-01 09:07 56.09630 91.81703 16580 ft 359 kts 255°
2026-05-01 09:07 56.08829 91.77464 17337 ft 363 kts 255°
2026-05-01 09:08 56.08006 91.73122 17964 ft 370 kts 255°
2026-05-01 09:08 56.07180 91.68764 18133 ft 374 kts 255°
2026-05-01 09:08 56.06347 91.64397 18147 ft 370 kts 255°
2026-05-01 09:08 56.05523 91.60100 18153 ft 367 kts 255°
2026-05-01 09:09 56.04690 91.55756 18155 ft 367 kts 255°
2026-05-01 09:09 56.03865 91.51452 18218 ft 375 kts 255°
2026-05-01 09:09 56.02743 91.45614 19494 ft 370 kts 255°
2026-05-01 09:09 56.02189 91.42734 19910 ft 374 kts 256°
2026-05-01 09:10 56.01349 91.38365 20562 ft 378 kts 256°
2026-05-01 09:10 56.00485 91.33888 21246 ft 381 kts 255°
2026-05-01 09:10 55.99622 91.29434 21850 ft 386 kts 255°
2026-05-01 09:10 55.98746 91.24894 22520 ft 388 kts 256°
2026-05-01 09:11 55.97989 91.20275 23100 ft 389 kts 260°
2026-05-01 09:11 55.97377 91.15564 23685 ft 392 kts 262°
2026-05-01 09:11 55.96836 91.10864 24304 ft 394 kts 263°
2026-05-01 09:11 55.96301 91.06076 24893 ft 397 kts 262°
2026-05-01 09:12 55.95760 91.01209 25417 ft 400 kts 263°
2026-05-01 09:12 55.95220 90.96381 25909 ft 405 kts 263°
2026-05-01 09:12 55.94648 90.91412 26412 ft 408 kts 262°
2026-05-01 09:12 55.94074 90.86546 27155 ft 406 kts 262°
2026-05-01 09:13 55.93492 90.81672 27923 ft 402 kts 263°
2026-05-01 09:13 55.92903 90.76774 28545 ft 402 kts 263°
2026-05-01 09:13 55.92320 90.71948 29156 ft 401 kts 262°
2026-05-01 09:13 55.91735 90.67136 29760 ft 400 kts 263°
2026-05-01 09:14 55.91141 90.62318 30415 ft 397 kts 263°
2026-05-01 09:14 55.90563 90.57622 31176 ft 391 kts 263°
2026-05-01 09:14 55.89988 90.52957 31935 ft 385 kts 263°
2026-05-01 09:14 55.89414 90.48289 32495 ft 383 kts 263°
2026-05-01 09:15 55.88852 90.43722 32979 ft 382 kts 264°
2026-05-01 09:15 55.88283 90.39106 33456 ft 380 kts 264°
2026-05-01 09:15 55.87718 90.34531 33963 ft 378 kts 263°
2026-05-01 09:15 55.87146 90.29919 34122 ft 383 kts 263°
2026-05-01 09:16 55.85992 90.20675 34131 ft 380 kts 263°
2026-05-01 09:17 55.84244 90.06877 34129 ft 379 kts 263°
2026-05-01 09:17 55.82492 89.93129 34129 ft 381 kts 263°
2026-05-01 09:18 55.80729 89.79419 34132 ft 377 kts 262°
2026-05-01 09:19 55.78966 89.65809 34132 ft 378 kts 262°
2026-05-01 09:20 55.77180 89.52166 34131 ft 377 kts 262°
2026-05-01 09:21 55.74776 89.33991 34128 ft 378 kts 261°
2026-05-01 09:21 55.72947 89.20271 34131 ft 394 kts 261°
2026-05-01 09:22 55.71658 89.10651 34131 ft 410 kts 261°
2026-05-01 09:22 55.70291 89.00568 34128 ft 426 kts 261°
2026-05-01 09:23 55.68161 88.84954 34132 ft 440 kts 261°
2026-05-01 09:24 55.65980 88.69173 34126 ft 438 kts 261°
2026-05-01 09:25 55.63066 88.48274 34125 ft 437 kts 261°
2026-05-01 09:26 55.60875 88.32709 34129 ft 438 kts 259°
2026-05-01 09:26 55.58651 88.17087 34128 ft 438 kts 259°
2026-05-01 09:27 55.56404 88.01428 34128 ft 439 kts 259°
2026-05-01 09:28 55.54905 87.91076 34127 ft 438 kts 259°
2026-05-01 09:28 55.53387 87.80684 34126 ft 437 kts 259°
2026-05-01 09:29 55.51100 87.65132 34128 ft 439 kts 259°
2026-05-01 09:30 55.48781 87.49531 34130 ft 438 kts 259°
2026-05-01 09:30 55.46440 87.34009 34129 ft 439 kts 258°
2026-05-01 09:31 55.44860 87.23618 34125 ft 440 kts 258°
2026-05-01 09:32 55.42470 87.08019 34122 ft 439 kts 258°
2026-05-01 09:32 55.40062 86.92471 34118 ft 439 kts 258°
2026-05-01 09:33 55.38464 86.82209 34116 ft 439 kts 258°
2026-05-01 09:34 55.36020 86.66647 34111 ft 440 kts 258°
2026-05-01 09:34 55.33567 86.51179 34111 ft 440 kts 258°
2026-05-01 09:35 55.31070 86.35577 34107 ft 442 kts 257°
2026-05-01 09:36 55.29412 86.25302 34107 ft 440 kts 257°
2026-05-01 09:36 55.27754 86.14945 34105 ft 441 kts 258°
2026-05-01 09:37 55.26657 86.04432 34104 ft 437 kts 265°
2026-05-01 09:37 55.25883 85.88833 34108 ft 413 kts 268°
2026-05-01 09:38 55.25464 85.79090 34064 ft 400 kts 268°
2026-05-01 09:38 55.25247 85.74194 33702 ft 409 kts 267°
2026-05-01 09:38 55.25016 85.69183 33130 ft 410 kts 267°
2026-05-01 09:39 55.24538 85.59396 32224 ft 399 kts 267°
2026-05-01 09:39 55.24299 85.54666 31718 ft 395 kts 267°
2026-05-01 09:39 55.24052 85.49856 31205 ft 391 kts 267°
2026-05-01 09:40 55.23811 85.45205 30699 ft 388 kts 267°
2026-05-01 09:40 55.23324 85.35908 29686 ft 381 kts 266°
2026-05-01 09:40 55.23083 85.31362 29193 ft 377 kts 266°
2026-05-01 09:41 55.22838 85.26788 28690 ft 374 kts 266°
2026-05-01 09:41 55.22355 85.17831 27704 ft 368 kts 266°
2026-05-01 09:41 55.22111 85.13378 27212 ft 365 kts 266°
2026-05-01 09:42 55.21871 85.09000 26730 ft 362 kts 266°
2026-05-01 09:42 55.21630 85.04645 26249 ft 359 kts 266°
2026-05-01 09:42 55.21150 84.96065 25302 ft 353 kts 266°
2026-05-01 09:43 55.20673 84.87650 24346 ft 347 kts 266°
2026-05-01 09:43 55.20433 84.83434 23876 ft 344 kts 266°
2026-05-01 09:43 55.20199 84.79350 23418 ft 340 kts 266°
2026-05-01 09:44 55.19690 84.71192 22507 ft 335 kts 263°
2026-05-01 09:44 55.19236 84.67233 22054 ft 333 kts 258°
2026-05-01 09:44 55.18627 84.63347 21608 ft 331 kts 256°
2026-05-01 09:45 55.15851 84.47627 19759 ft 321 kts 255°
2026-05-01 09:46 55.15203 84.43932 19324 ft 318 kts 255°
2026-05-01 09:46 55.14557 84.40239 18890 ft 316 kts 255°
2026-05-01 09:46 55.13921 84.36594 18453 ft 313 kts 255°
2026-05-01 09:46 55.13293 84.32996 18031 ft 311 kts 254°
2026-05-01 09:47 55.12658 84.29363 17600 ft 309 kts 254°
2026-05-01 09:47 55.12041 84.25835 17175 ft 308 kts 254°
2026-05-01 09:47 55.11414 84.22259 16749 ft 306 kts 254°
2026-05-01 09:47 55.10794 84.18735 16333 ft 304 kts 254°
2026-05-01 09:48 55.10173 84.15215 15906 ft 303 kts 254°
2026-05-01 09:48 55.09562 84.11749 15491 ft 301 kts 254°
2026-05-01 09:48 55.08948 84.08280 15077 ft 300 kts 254°
2026-05-01 09:48 55.08343 84.04791 14655 ft 298 kts 255°
2026-05-01 09:49 55.07892 84.01326 14244 ft 297 kts 261°
2026-05-01 09:49 55.07613 83.97773 13839 ft 295 kts 264°
2026-05-01 09:49 55.07414 83.94252 13435 ft 293 kts 265°
2026-05-01 09:49 55.07229 83.90729 13020 ft 292 kts 265°
2026-05-01 09:50 55.07031 83.87192 12602 ft 292 kts 265°
2026-05-01 09:50 55.06824 83.83688 12196 ft 291 kts 265°
2026-05-01 09:50 55.06610 83.80218 11786 ft 290 kts 264°
2026-05-01 09:50 55.06391 83.76717 11381 ft 290 kts 265°
2026-05-01 09:51 55.06173 83.73254 10971 ft 289 kts 265°
2026-05-01 09:51 55.05952 83.69763 10556 ft 289 kts 265°
2026-05-01 09:51 55.05732 83.66312 10288 ft 283 kts 265°
2026-05-01 09:51 55.05521 83.63000 10151 ft 273 kts 265°
2026-05-01 09:52 55.05310 83.59715 9881 ft 269 kts 265°
2026-05-01 09:52 55.05101 83.56475 9503 ft 270 kts 265°
2026-05-01 09:52 55.04895 83.53262 9163 ft 269 kts 265°
2026-05-01 09:52 55.04688 83.50060 8828 ft 268 kts 265°
2026-05-01 09:53 55.04477 83.46828 8483 ft 267 kts 265°
2026-05-01 09:53 55.04269 83.43647 8149 ft 266 kts 265°
2026-05-01 09:53 55.04059 83.40444 7811 ft 266 kts 265°
2026-05-01 09:53 55.03848 83.37242 7467 ft 266 kts 264°
2026-05-01 09:54 55.03640 83.34581 7186 ft 265 kts 259°
2026-05-01 09:54 55.03074 83.31709 7056 ft 263 kts 239°
2026-05-01 09:54 55.02009 83.29068 6995 ft 271 kts 231°
2026-05-01 09:54 55.00811 83.26528 6964 ft 272 kts 230°
2026-05-01 09:55 54.99631 83.23998 6833 ft 266 kts 231°
2026-05-01 09:55 54.98512 83.21511 6563 ft 263 kts 232°
2026-05-01 09:55 54.97411 83.19009 6234 ft 260 kts 232°
2026-05-01 09:55 54.96320 83.16511 5893 ft 258 kts 232°
2026-05-01 09:56 54.95235 83.14020 5562 ft 257 kts 232°
2026-05-01 09:56 54.94308 83.11393 5233 ft 256 kts 246°
2026-05-01 09:56 54.94012 83.08387 4969 ft 253 kts 276°
2026-05-01 09:56 54.94519 83.05525 4660 ft 250 kts 297°
2026-05-01 09:57 54.95491 83.03030 4136 ft 256 kts 310°
2026-05-01 09:57 54.96665 83.00706 3655 ft 255 kts 312°
2026-05-01 09:57 54.97848 82.98460 3251 ft 250 kts 312°
2026-05-01 09:57 54.99004 82.96237 2926 ft 241 kts 311°
2026-05-01 09:58 55.00103 82.94087 2642 ft 233 kts 311°
2026-05-01 09:58 55.01146 82.92027 2399 ft 224 kts 311°
2026-05-01 09:58 55.02158 82.90019 2183 ft 214 kts 310°
2026-05-01 09:58 55.02974 82.87991 1984 ft 197 kts 292°
2026-05-01 09:59 55.03187 82.85812 1952 ft 177 kts 260°
2026-05-01 09:59 55.02956 82.83753 1936 ft 168 kts 255°
2026-05-01 09:59 55.02772 82.81868 1949 ft 150 kts 257°
2026-05-01 09:59 55.02604 82.80031 1751 ft 157 kts 257°
2026-05-01 10:00 55.02433 82.78186 1487 ft 151 kts 258°
2026-05-01 10:00 55.02273 82.76407 1356 ft 150 kts 257°
2026-05-01 10:00 55.02108 82.74583 1138 ft 153 kts 258°
2026-05-01 10:00 55.01947 82.72783 917 ft 151 kts 258°
2026-05-01 10:01 55.01794 82.70982 724 ft 146 kts 259°
2026-05-01 10:01 55.01642 82.69228 565 ft 149 kts 257°
2026-05-01 10:01 55.01472 82.67453 388 ft 145 kts 258°
2026-05-01 10:01 55.01330 82.66009 371 ft 88 kts 260°
2026-05-01 10:02 55.01264 82.65305 371 ft 30 kts 260°
2026-05-01 10:02 55.01243 82.65137 371 ft 10 kts 254°
2026-05-01 10:02 55.01197 82.65063 371 ft 9 kts 189°